Home   Weather   Johor Bahru   Past weeks

Flag for Malaysia Past Weather in Johor Bahru, Malaysia — Yesterday and Last 2 Weeks

Now
75 °F

Passing clouds.


Feels Like: 73 °F
Forecast: 78 / 89 °F
Wind: 1 mph from North

Location: Johore Bharu / Senai

Current Time: Feb 23, 2017 at 3:52:32 am

Latest Report: Feb 23, 2017 at 3:00 am


Visibility: 5 mi

Pressure: 29.83 "Hg

Humidity: 100%

Dew Point: 75 °F

Location of Johor BahruLocation

Past Weather in Johor Bahru — Graph

°F

Johor Bahru Temperature Yesterday

Maximum temperature yesterday: 90 °F (at 2:00 pm)
Minimum temperature yesterday: 75 °F (at 7:00 am)
Average temperature yesterday: 81 °F

High & Low Weather Summary for the Past Weeks

 TemperatureHumidityPressure
High91 °F (Feb 8, 4:00 pm)100% (Feb 8, 2:00 am)29.98 "Hg (Feb 8, 2:00 am)
Low73 °F (Feb 10, 6:00 am)59% (Feb 10, 4:00 pm)29.71 "Hg (Feb 9, 5:00 pm)
Average80 °F86%29.86 "Hg
* Reported Feb 8 2:00 am — Feb 23 2:00 am, Johor Bahru, Weather by CustomWeather, © 2017

Note: Actual official high and low records may vary slightly from our data, if they occured in-between our weather recording intervals... More about our weather records

Advertising

Johor Bahru Weather History for the Previous 24 Hours

Scroll right to see more
 ConditionsComfort  
Time TempWeatherWind HumidityBarometerVisibility
2:00 am
Thu, Feb 23
77 °FPassing clouds.1 mph94%29.86 "Hg4 mi
1:00 am77 °FPartly cloudy.1 mph94%29.86 "Hg4 mi
12:00 am79 °FPassing clouds.1 mph94%29.86 "HgN/A
11:00 pm
Wed, Feb 22
79 °FPassing clouds.1 mph94%29.86 "HgN/A
10:00 pm79 °FPassing clouds.3 mph94%29.86 "HgN/A
9:00 pm81 °FPassing clouds.5 mph89%29.83 "HgN/A
8:00 pm81 °FPassing clouds.6 mph89%29.83 "HgN/A
7:00 pm82 °FPartly sunny.6 mph84%29.80 "HgN/A
6:00 pm84 °FPartly sunny.9 mph79%29.77 "HgN/A
5:00 pm88 °FBroken clouds.12 mph75%29.74 "HgN/A
4:00 pm86 °FBroken clouds.12 mph79%29.77 "HgN/A
3:00 pm90 °FBroken clouds.13 mph71%29.80 "HgN/A
2:00 pm90 °FBroken clouds.6 mph71%29.83 "HgN/A
1:00 pm88 °FBroken clouds.7 mph75%29.83 "HgN/A
12:00 pm86 °FBroken clouds.7 mph75%29.86 "HgN/A
11:00 am84 °FBroken clouds.7 mph79%29.89 "HgN/A
10:00 am84 °FPartly sunny.6 mph84%29.89 "HgN/A
9:00 am81 °FPartly sunny.2 mph89%29.86 "HgN/A
8:00 am77 °FBroken clouds.1 mph94%29.86 "HgN/A
7:00 am75 °FPassing clouds.1 mph100%29.83 "HgN/A
6:00 am77 °FPassing clouds.1 mph94%29.80 "HgN/A
5:00 am77 °FPassing clouds.1 mph94%29.80 "Hg6 mi
4:00 am77 °FPassing clouds.1 mph94%29.83 "Hg6 mi
3:00 am77 °FPassing clouds.2 mph94%29.83 "Hg6 mi
Weather by CustomWeather, © 2017

See weather overviewHow to use our weather pages